Harrison, AR

11:43 PM CST on February 27, 2017 (GMT -0600)
Boone County

Weather History for KHRO - May, 2013

Change the Weather History Date:

Wednesday, May 22, 2013

  Actual Average Record
Temperature  
Mean Temperature 66 °F 67 °F  
Max Temperature 76 °F 78 °F 93 °F (1941)
Min Temperature 56 °F 57 °F 43 °F (1963)
Degree Days  
Heating Degree Days 0 2  
Month to date heating degree days 119 66  
Since 1 July heating degree days 3955 3987  
Cooling Degree Days 1 4  
Month to date cooling degree days 61 61  
Year to date cooling degree days 93 98  
Growing Degree Days 16 (Base 50)    
Moisture  
Dew Point 55 °F    
Average Humidity 67    
Maximum Humidity 87    
Minimum Humidity 46    
Precipitation  
Precipitation 0.00 in 0.14 in 2.25 in (1905)
Month to date precipitation 3.81 3.46  
Year to date precipitation 17.15 16.77  
Snow  
Snow 0.00 in 0.00 in - ()
Month to date snowfall 0.1 0.0  
Since 1 July snowfall 4.7 11.5  
Snow Depth 0.00 in    
Sea Level Pressure  
Sea Level Pressure 29.85 in    
Wind  
Wind Speed 6 mph (West)    
Max Wind Speed 18 mph    
Max Gust Speed 26 mph    
Visibility 10 miles    
Events      
T = Trace of Precipitation, MM = Missing Value Source: NWS Daily Summary

Daily Weather History Graph

Daily Weather History Graph

Search for Another Location

Airport or City:

Trip Planner

Search our weather history database for the weather conditions in past years. The results will help you decide how hot, cold, wet, or windy it might be!

Date:

Astronomy

May. 22, 2013 Rise Set
Actual Time 6:01 AM CDT 8:17 PM CDT
Civil Twilight 5:31 AM CDT 8:47 PM CDT
Nautical Twilight 4:56 AM CDT 9:23 PM CDT
Astronomical Twilight 4:17 AM CDT 10:02 PM CDT
Moon 5:44 PM CDT (5/22) 4:00 AM CDT (5/22)
Length of Visible Light 15h 15m
Length of Day
14h 16m
Waxing Gibbous, 91% of the Moon is Illuminated
May 22
Waxing Gibbous
May 24
Full
May 31
Last Quarter
Jun 8
New
Jun 16
First Quarter

Hourly Weather History & Observations

Time (CDT) Temp. Dew Point Humidity Pressure Visibility Wind Dir Wind Speed Gust Speed Precip Events Conditions
12:53 AM 60.1 °F 55.9 °F 86% 29.82 in 10.0 mi Variable 4.6 mph - N/A   Overcast
1:53 AM 59.0 °F 55.0 °F 87% 29.78 in 10.0 mi NW 4.6 mph - N/A   Overcast
2:53 AM 57.0 °F 54.0 °F 89% 29.79 in 10.0 mi Calm Calm - N/A   Clear
3:53 AM 57.9 °F 54.0 °F 87% 29.79 in 10.0 mi WSW 5.8 mph - N/A   Clear
4:53 AM 57.0 °F 53.1 °F 87% 29.80 in 10.0 mi West 4.6 mph - N/A   Clear
5:53 AM 57.0 °F 53.1 °F 87% 29.83 in 10.0 mi West 4.6 mph - N/A   Clear
6:53 AM 57.9 °F 53.1 °F 84% 29.83 in 10.0 mi SSW 3.5 mph - N/A   Clear
7:53 AM 62.1 °F 54.0 °F 75% 29.82 in 10.0 mi SW 4.6 mph - N/A   Clear
8:53 AM 66.0 °F 55.0 °F 68% 29.84 in 10.0 mi Calm Calm - N/A   Clear
9:53 AM 66.9 °F 55.0 °F 66% 29.85 in 10.0 mi WNW 6.9 mph - N/A   Clear
10:53 AM 70.0 °F 55.0 °F 59% 29.86 in 10.0 mi WSW 6.9 mph - N/A   Clear
11:53 AM 72.0 °F 55.0 °F 55% 29.85 in 10.0 mi West 11.5 mph - N/A   Clear
12:53 PM 73.0 °F 55.0 °F 53% 29.85 in 10.0 mi WSW 11.5 mph 18.4 mph N/A   Clear
1:53 PM 73.9 °F 54.0 °F 50% 29.84 in 10.0 mi West 13.8 mph 21.9 mph N/A   Clear
2:53 PM 75.9 °F 54.0 °F 46% 29.83 in 10.0 mi WNW 16.1 mph 26.5 mph N/A   Partly Cloudy
3:53 PM 75.0 °F 55.9 °F 51% 29.84 in 10.0 mi West 11.5 mph 20.7 mph N/A   Clear
4:53 PM 75.0 °F 53.1 °F 46% 29.84 in 10.0 mi West 12.7 mph 19.6 mph N/A   Clear
5:53 PM 73.9 °F 54.0 °F 50% 29.85 in 10.0 mi WNW 9.2 mph 17.3 mph N/A   Clear
6:53 PM 73.0 °F 55.0 °F 53% 29.86 in 10.0 mi WNW 4.6 mph - N/A   Clear
7:53 PM 69.1 °F 55.0 °F 61% 29.87 in 10.0 mi WNW 3.5 mph - N/A   Clear
8:53 PM 64.9 °F 55.0 °F 70% 29.89 in 10.0 mi Calm Calm - N/A   Clear
9:53 PM 63.0 °F 55.0 °F 75% 29.92 in 10.0 mi Calm Calm - N/A   Clear
10:53 PM 62.1 °F 55.0 °F 78% 29.94 in 10.0 mi West 3.5 mph - N/A   Scattered Clouds
11:53 PM 61.0 °F 55.0 °F 81% 29.94 in 10.0 mi West 3.5 mph - N/A   Clear